When you browse on this site, cookies collect data to enhance your experience and personalize the content and advertising you see.
Visit our Privacy Policy to learn more. By continuing to use the site, you agree to this use of cookies and data.
  • în România
  • Lista ţărilor
  • Pe 7 zile
  • Temperatura apei
  • Meteo pe hartă
  • Widget-uri
  • user-avatar
    Intrare

    Meteo pe oră la Glasgow

    Astăzi, 14 Noiembrie, Joi

    Timp Temperatura Precipitaţii Vânt Presiune Umiditate
    00:00 -1°C° 0 mm 4 m/s 748 mmHg 89%
    01:00 -1°C° 0 mm 4 m/s 749 mmHg 88%
    02:00 -1°C° 0 mm 5 m/s 749 mmHg 87%
    03:00 -1°C° 0 mm 5 m/s 750 mmHg 87%
    04:00 -2°C° 0.1 mm 6 m/s 750 mmHg 86%
    05:00 -1°C° 0.1 mm 6 m/s 750 mmHg 86%
    06:00 -1°C° 0.1 mm 7 m/s 751 mmHg 86%
    07:00 -1°C° 0.1 mm 7 m/s 751 mmHg 85%
    08:00 -1°C° 0.1 mm 7 m/s 752 mmHg 84%
    09:00 0°C° 0.1 mm 7 m/s 753 mmHg 83%
    10:00 +2°C° 0 mm 7 m/s 753 mmHg 79%
    11:00 +2°C° 0 mm 8 m/s 754 mmHg 75%
    12:00 +4°C° 0 mm 8 m/s 754 mmHg 71%
    13:00 +3°C° 0.1 mm 9 m/s 754 mmHg 73%
    14:00 +2°C° 0.1 mm 9 m/s 755 mmHg 76%
    15:00 +2°C° 0.1 mm 10 m/s 755 mmHg 78%
    16:00 +2°C° 0.5 mm 10 m/s 756 mmHg 81%
    17:00 +1°C° 0.5 mm 10 m/s 756 mmHg 84%
    18:00 +1°C° 0.5 mm 10 m/s 757 mmHg 86%
    19:00 +1°C° 0.6 mm 9 m/s 758 mmHg 86%
    20:00 +1°C° 0.6 mm 9 m/s 758 mmHg 87%
    21:00 +1°C° 0.6 mm 8 m/s 759 mmHg 87%
    22:00 +1°C° 0.5 mm 8 m/s 759 mmHg 87%
    23:00 +2°C° 0.5 mm 7 m/s 760 mmHg 87%

    Mâine, 15 Noiembrie, Vineri

    Timp Temperatura Precipitaţii Vânt Presiune Umiditate
    00:00 +2°C° 0.5 mm 7 m/s 760 mmHg 88%
    01:00 +2°C° 0.2 mm 7 m/s 760 mmHg 88%
    02:00 +2°C° 0.2 mm 7 m/s 761 mmHg 87%
    03:00 +2°C° 0.2 mm 7 m/s 761 mmHg 87%
    04:00 +1°C° 0.1 mm 6 m/s 761 mmHg 88%
    05:00 +1°C° 0.1 mm 6 m/s 761 mmHg 89%
    06:00 -1°C° 0.1 mm 6 m/s 761 mmHg 90%
    07:00 +1°C° 0 mm 6 m/s 762 mmHg 90%
    08:00 +1°C° 0 mm 5 m/s 762 mmHg 90%
    09:00 +1°C° 0 mm 5 m/s 763 mmHg 91%
    10:00 +2°C° 0 mm 5 m/s 763 mmHg 86%
    11:00 +3°C° 0 mm 5 m/s 763 mmHg 82%
    12:00 +5°C° 0 mm 5 m/s 763 mmHg 78%
    13:00 +5°C° 0 mm 5 m/s 763 mmHg 80%
    14:00 +3°C° 0 mm 5 m/s 763 mmHg 81%
    15:00 +3°C° 0 mm 5 m/s 762 mmHg 83%
    16:00 +2°C° 0 mm 5 m/s 762 mmHg 83%
    17:00 +2°C° 0 mm 5 m/s 762 mmHg 84%
    18:00 +1°C° 0 mm 4 m/s 762 mmHg 85%
    19:00 +1°C° 0 mm 4 m/s 762 mmHg 85%
    20:00 +1°C° 0 mm 4 m/s 762 mmHg 85%
    21:00 +1°C° 0 mm 5 m/s 762 mmHg 85%
    22:00 +1°C° 0.1 mm 4 m/s 762 mmHg 85%
    23:00 0°C° 0.1 mm 4 m/s 761 mmHg 86%

    Poimâine, 16 Noiembrie, Sâmbătă

    Timp Temperatura Precipitaţii Vânt Presiune Umiditate
    00:00 0°C° 0.1 mm 4 m/s 761 mmHg 86%
    01:00 0°C° 0.2 mm 4 m/s 761 mmHg 86%
    02:00 +1°C° 0.2 mm 4 m/s 760 mmHg 86%
    03:00 +2°C° 0.2 mm 3 m/s 760 mmHg 85%
    04:00 +2°C° 0.1 mm 3 m/s 759 mmHg 86%
    05:00 +2°C° 0.1 mm 3 m/s 759 mmHg 87%
    06:00 +3°C° 0.1 mm 2 m/s 759 mmHg 88%
    07:00 +3°C° 0 mm 2 m/s 759 mmHg 89%
    08:00 +3°C° 0 mm 2 m/s 759 mmHg 89%
    09:00 +4°C° 0 mm 2 m/s 758 mmHg 90%
    10:00 +4°C° 0 mm 2 m/s 758 mmHg 88%
    11:00 +6°C° 0 mm 1 m/s 758 mmHg 86%
    12:00 +7°C° 0 mm 1 m/s 757 mmHg 84%
    13:00 +6°C° 0 mm 1 m/s 757 mmHg 85%
    14:00 +6°C° 0 mm 1 m/s 757 mmHg 87%
    15:00 +5°C° 0 mm 0 m/s 756 mmHg 88%
    16:00 +5°C° 0 mm 1 m/s 756 mmHg 89%
    17:00 +5°C° 0 mm 1 m/s 756 mmHg 89%
    18:00 +4°C° 0 mm 1 m/s 756 mmHg 90%
    19:00 +4°C° 0 mm 1 m/s 756 mmHg 90%
    20:00 +4°C° 0 mm 1 m/s 756 mmHg 90%
    21:00 +4°C° 0 mm 1 m/s 756 mmHg 90%
    22:00 +3°C° 0 mm 2 m/s 756 mmHg 89%
    23:00 +3°C° 0 mm 2 m/s 756 mmHg 88%

    17 Noiembrie, Duminică

    Timp Temperatura Precipitaţii Vânt Presiune Umiditate
    00:00 +3°C° 0 mm 2 m/s 756 mmHg 87%
    01:00 +3°C° 0 mm 2 m/s 756 mmHg 88%
    02:00 +3°C° 0 mm 2 m/s 756 mmHg 89%
    03:00 +3°C° 0 mm 2 m/s 756 mmHg 90%
    04:00 +2°C° 0 mm 2 m/s 756 mmHg 91%
    05:00 +1°C° 0 mm 3 m/s 756 mmHg 92%
    06:00 0°C° 0 mm 3 m/s 757 mmHg 93%
    07:00 0°C° 0 mm 3 m/s 757 mmHg 92%
    08:00 +1°C° 0 mm 3 m/s 758 mmHg 91%
    09:00 0°C° 0 mm 4 m/s 758 mmHg 90%
    10:00 +1°C° 0.1 mm 4 m/s 759 mmHg 90%
    11:00 +2°C° 0.1 mm 5 m/s 759 mmHg 91%
    12:00 +2°C° 0.1 mm 6 m/s 760 mmHg 91%
    13:00 +2°C° 0.1 mm 5 m/s 760 mmHg 89%
    14:00 +2°C° 0.1 mm 5 m/s 760 mmHg 87%
    15:00 +2°C° 0.1 mm 5 m/s 760 mmHg 86%
    16:00 +2°C° 0 mm 5 m/s 760 mmHg 86%
    17:00 +1°C° 0 mm 5 m/s 761 mmHg 87%
    18:00 +1°C° 0 mm 6 m/s 761 mmHg 88%
    19:00 0°C° 0 mm 5 m/s 761 mmHg 87%
    20:00 0°C° 0 mm 5 m/s 762 mmHg 86%
    21:00 0°C° 0 mm 5 m/s 762 mmHg 86%
    22:00 -1°C° 0 mm 5 m/s 762 mmHg 86%
    23:00 -1°C° 0 mm 5 m/s 762 mmHg 86%

    18 Noiembrie, Luni

    Timp Temperatura Precipitaţii Vânt Presiune Umiditate
    00:00 -1°C° 0 mm 5 m/s 762 mmHg 86%
    01:00 -1°C° 0 mm 5 m/s 762 mmHg 86%
    02:00 -2°C° 0 mm 5 m/s 761 mmHg 86%
    03:00 -2°C° 0 mm 4 m/s 761 mmHg 85%
    04:00 -2°C° 0 mm 4 m/s 761 mmHg 85%
    05:00 -2°C° 0 mm 4 m/s 761 mmHg 84%
    06:00 -2°C° 0 mm 4 m/s 761 mmHg 83%
    07:00 -2°C° 0 mm 4 m/s 760 mmHg 83%
    08:00 -1°C° 0 mm 4 m/s 760 mmHg 82%
    09:00 -1°C° 0 mm 4 m/s 760 mmHg 82%
    10:00 0°C° 0 mm 4 m/s 760 mmHg 78%
    11:00 +1°C° 0 mm 4 m/s 759 mmHg 74%
    12:00 +3°C° 0 mm 3 m/s 759 mmHg 71%
    13:00 +3°C° 0 mm 3 m/s 758 mmHg 74%
    14:00 +2°C° 0 mm 3 m/s 758 mmHg 77%
    15:00 +2°C° 0 mm 3 m/s 757 mmHg 80%
    16:00 +1°C° 0 mm 3 m/s 757 mmHg 82%
    17:00 0°C° 0 mm 3 m/s 757 mmHg 83%
    18:00 0°C° 0 mm 3 m/s 756 mmHg 85%
    19:00 0°C° 0 mm 3 m/s 756 mmHg 85%
    20:00 0°C° 0 mm 3 m/s 756 mmHg 85%
    21:00 -2°C° 0 mm 4 m/s 755 mmHg 86%
    22:00 -1°C° 0 mm 4 m/s 755 mmHg 86%
    23:00 -1°C° 0 mm 4 m/s 754 mmHg 87%

    19 Noiembrie, Marţi

    Timp Temperatura Precipitaţii Vânt Presiune Umiditate
    00:00 -1°C° 0 mm 5 m/s 754 mmHg 88%
    01:00 -1°C° 0 mm 5 m/s 753 mmHg 88%
    02:00 -1°C° 0 mm 5 m/s 752 mmHg 87%
    03:00 -2°C° 0 mm 6 m/s 752 mmHg 87%
    04:00 -2°C° 0 mm 6 m/s 751 mmHg 87%
    05:00 -2°C° 0 mm 6 m/s 751 mmHg 87%
    06:00 -2°C° 0 mm 6 m/s 750 mmHg 86%
    07:00 -2°C° 0 mm 6 m/s 750 mmHg 85%
    08:00 -1°C° 0 mm 5 m/s 749 mmHg 83%
    09:00 0°C° 0 mm 5 m/s 749 mmHg 82%
    10:00 +1°C° 0 mm 4 m/s 749 mmHg 78%
    11:00 +3°C° 0 mm 4 m/s 749 mmHg 73%
    12:00 +4°C° 0 mm 3 m/s 748 mmHg 69%
    13:00 +3°C° 0 mm 3 m/s 748 mmHg 71%
    14:00 +3°C° 0 mm 2 m/s 748 mmHg 73%
    15:00 +3°C° 0 mm 2 m/s 748 mmHg 74%
    16:00 +2°C° 0 mm 2 m/s 748 mmHg 75%
    17:00 +1°C° 0 mm 2 m/s 748 mmHg 75%
    18:00 +1°C° 0 mm 2 m/s 748 mmHg 75%
    19:00 +1°C° 0 mm 2 m/s 748 mmHg 74%
    20:00 -1°C° 0 mm 2 m/s 748 mmHg 73%
    21:00 -1°C° 0 mm 3 m/s 748 mmHg 72%
    22:00 -1°C° 0 mm 3 m/s 748 mmHg 71%
    23:00 0°C° 0 mm 3 m/s 747 mmHg 70%
    Arată mai mult